loading
DOY 205 | 2024-07-23T02:33:55Z

ELEKTRON 1 DEB, 750

Orbit data source: Space-Track

ELEKTRON 1 DEB, 750 is space debris in LEO originally from a launch on Thu, 30 Jan 1964 UTC launched from the Tyuratam Missile And Space Complex (TTMTR). Debris objects in space refer to the collection of defunct objects orbiting the Earth. Examples of debris include non-operational satellites, rocket bodies, and fragments generated from explosions, collisions, or faulty payload assembly.

Loading next visibility...
Loading greatness...
ELEKTRON 1 DEB details
NORAD ID750
COSPAR ID
1964-006C
Orbit
LEO
Last TLE update14 hours ago
Origin
Flag of CISOKB-1 (CIS)
ManufacturerOKB-1
BusAdapter
MotorUnknown
MassWet unknown, Dry mass unknown
Launch date (UTC)
1964-01-30 (60 years ago)
Launch vehicleUnknown
Launch site
Tyuratam Missile And Space Complex (TTMTR)
Object type
Payload
Rocket body
Debris
Radar Cross SectionMedium (>0.1 m² and <1 m²)
Predictive object data (real-time)
Latitude49.60082°
Longitude-135.96886°
Altitude459.492 km
Speed8.177 km/s
Apparent Right ascension01h 33m 15s
Apparent Declination8° 06' 22"
Sunlit
Object is in daylight
Predictive observer data (real-time)
Local Sidereal Time15:38:46
Azimuth38.395° NE
Elevation-33.903°
Doppler factor1
Orbital elements
Apogee2,839.827 km
Perigee376.661 km
Semi-major axis7,986.381 km
Eccentricity0.1542104
Inclination60.7545°
RAAN210.4944°
Arg. of periapsis95.6301°
True anomaly264.46771°
Mean anomaly282.1842°
Mean motion3.04101 °/min
BSTAR0.0025628
Period118.38 mins
Definitive object data (Epoch: 2024-07-22T12:13:54.525Z)
Latitude0.00003°
Longitude86.27584°
Altitude1,538.275 km
Speed7.13 km/s
True Right ascension14h 01m 58s
True Declination0° 00' 00"
Sunlit
Object was in daylight at TLE epoch
TLE from 14 hours ago
0 ELEKTRON 1 DEB
1 00750U 64006C   24204.50965886  .00024516  00000-0  25628-2 0  9990
2 00750  60.7545 210.4944 1542104  95.6301 282.1842 12.16219479760750
Epoch: 2024-07-22T12:13Z
No data available

ELEKTRON 1 DEB Visibility forecast

Observer location: 39.9160978°, -105.1181434

ELEKTRON 1 DEB is not visible in the next 10 days
Span
Click to sort rows by Start time (UTC) header in descending order
Start Az.
Max El. time (UTC)
Max El. Az.
Max El.
End time (UTC)
End Az.